EFW44VD EGKK-LIBD

Flight info

Callsign EFW44VD
Flight time 2h 24m
Altitude 35000
Route ODVIK2Z ODVIK Y311 DVR UL9 KONAN DCT KOK DCT RITAX DCT KRH DCT UTABA DCT MOMUK DCT UMVEG DCT VEKEN DCT ARNOS DCT RILIM/N0390F210 DCT AIOSA DCT BANAV BANAV1H
Aircraft A320/M-SDE3FGIJ1KRWXY/S

Departure

Time 2026-05-08 14:44
Airport London Gatwick Airport (EGKK)

Arrival

Time 2026-05-08 17:08
Airport Bari Karol Wojtyła International Airport (LIBD)
Time Latitude Longitude Altitude Speed Heading
2026-05-08 14:02 51.15368 -0.16346 195 ft 0 kts 356°
2026-05-08 14:27 51.15361 -0.16346 205 ft 4 kts 356°
2026-05-08 14:28 51.15339 -0.16344 208 ft 4 kts 351°
2026-05-08 14:28 51.15323 -0.16324 217 ft 4 kts 275°
2026-05-08 14:28 51.15323 -0.16300 207 ft 0 kts 258°
2026-05-08 14:28 51.15319 -0.16330 205 ft 0 kts 259°
2026-05-08 14:32 51.15319 -0.16331 205 ft 1 kts 259°
2026-05-08 14:32 51.15315 -0.16363 210 ft 4 kts 259°
2026-05-08 14:32 51.15309 -0.16417 205 ft 5 kts 259°
2026-05-08 14:32 51.15303 -0.16471 210 ft 5 kts 259°
2026-05-08 14:33 51.15297 -0.16524 208 ft 5 kts 259°
2026-05-08 14:33 51.15288 -0.16600 215 ft 8 kts 259°
2026-05-08 14:33 51.15299 -0.16677 215 ft 8 kts 313°
2026-05-08 14:33 51.15314 -0.16750 205 ft 7 kts 270°
2026-05-08 14:34 51.15304 -0.16827 205 ft 7 kts 255°
2026-05-08 14:34 51.15292 -0.16909 208 ft 9 kts 257°
2026-05-08 14:34 51.15276 -0.17023 209 ft 12 kts 258°
2026-05-08 14:34 51.15259 -0.17173 207 ft 14 kts 272°
2026-05-08 14:35 51.15314 -0.17281 209 ft 12 kts 268°
2026-05-08 14:35 51.15301 -0.17419 210 ft 14 kts 263°
2026-05-08 14:35 51.15282 -0.17595 205 ft 17 kts 258°
2026-05-08 14:35 51.15256 -0.17780 209 ft 18 kts 257°
2026-05-08 14:36 51.15229 -0.17974 215 ft 18 kts 257°
2026-05-08 14:36 51.15202 -0.18173 205 ft 19 kts 258°
2026-05-08 14:36 51.15180 -0.18380 205 ft 20 kts 259°
2026-05-08 14:36 51.15146 -0.18625 205 ft 24 kts 257°
2026-05-08 14:37 51.15113 -0.18878 212 ft 24 kts 258°
2026-05-08 14:37 51.15076 -0.19136 205 ft 24 kts 257°
2026-05-08 14:37 51.15041 -0.19387 213 ft 23 kts 258°
2026-05-08 14:37 51.15007 -0.19641 205 ft 24 kts 257°
2026-05-08 14:38 51.14971 -0.19899 214 ft 24 kts 258°
2026-05-08 14:38 51.14936 -0.20154 209 ft 24 kts 257°
2026-05-08 14:38 51.14900 -0.20412 208 ft 24 kts 257°
2026-05-08 14:38 51.14864 -0.20671 205 ft 24 kts 258°
2026-05-08 14:39 51.14829 -0.20924 210 ft 20 kts 257°
2026-05-08 14:39 51.14803 -0.21113 210 ft 17 kts 257°
2026-05-08 14:39 51.14768 -0.21294 208 ft 17 kts 257°
2026-05-08 14:39 51.14725 -0.21405 210 ft 3 kts 194°
2026-05-08 14:41 51.14724 -0.21406 210 ft 1 kts 193°
2026-05-08 14:41 51.14680 -0.21389 205 ft 9 kts 150°
2026-05-08 14:41 51.14620 -0.21332 215 ft 11 kts 164°
2026-05-08 14:42 51.14548 -0.21283 212 ft 12 kts 140°
2026-05-08 14:42 51.14523 -0.21155 206 ft 13 kts 83°
2026-05-08 14:42 51.14533 -0.21080 207 ft 0 kts 77°
2026-05-08 14:43 51.14534 -0.21072 207 ft 5 kts 77°
2026-05-08 14:43 51.14583 -0.20709 217 ft 67 kts 78°
2026-05-08 14:43 51.14728 -0.19669 214 ft 123 kts 78°
2026-05-08 14:43 51.14942 -0.18099 228 ft 163 kts 79°
2026-05-08 14:44 51.15171 -0.16347 792 ft 162 kts 81°
2026-05-08 14:44 51.15412 -0.14597 1454 ft 162 kts 79°
2026-05-08 14:44 51.15668 -0.12762 1764 ft 180 kts 80°
2026-05-08 14:44 51.15952 -0.10694 1958 ft 202 kts 79°
2026-05-08 14:45 51.16270 -0.08370 2192 ft 227 kts 80°
2026-05-08 14:45 51.16624 -0.05782 2623 ft 248 kts 79°
2026-05-08 14:45 51.16883 -0.03037 3383 ft 253 kts 91°
2026-05-08 14:45 51.16839 -0.00217 4269 ft 257 kts 92°
2026-05-08 14:46 51.16789 0.02671 5046 ft 263 kts 92°
2026-05-08 14:46 51.16734 0.05604 5774 ft 268 kts 92°
2026-05-08 14:46 51.16678 0.08606 6535 ft 274 kts 92°
2026-05-08 14:46 51.16622 0.11666 7255 ft 278 kts 93°
2026-05-08 14:47 51.16564 0.14763 7940 ft 282 kts 93°
2026-05-08 14:47 51.16473 0.17914 8656 ft 285 kts 101°
2026-05-08 14:47 51.15939 0.20834 9861 ft 265 kts 111°
2026-05-08 14:47 51.15341 0.23584 10708 ft 262 kts 111°
2026-05-08 14:48 51.14736 0.26328 11308 ft 269 kts 111°
2026-05-08 14:48 51.14320 0.29305 11470 ft 292 kts 90°
2026-05-08 14:48 51.14617 0.32606 11897 ft 302 kts 80°
2026-05-08 14:48 51.15027 0.35915 12527 ft 306 kts 79°
2026-05-08 14:49 51.15438 0.39214 13184 ft 309 kts 80°
2026-05-08 14:49 51.15856 0.42582 13838 ft 312 kts 80°
2026-05-08 14:49 51.16275 0.45989 14418 ft 314 kts 80°
2026-05-08 14:49 51.16592 0.49436 14963 ft 317 kts 88°
2026-05-08 14:50 51.16624 0.53092 15084 ft 336 kts 91°
2026-05-08 14:50 51.16618 0.56865 15217 ft 353 kts 91°
2026-05-08 14:50 51.16601 0.60871 15358 ft 369 kts 91°
2026-05-08 14:50 51.16585 0.64994 15770 ft 375 kts 91°
2026-05-08 14:51 51.16573 0.69175 16270 ft 379 kts 91°
2026-05-08 14:51 51.16561 0.73391 16797 ft 382 kts 91°
2026-05-08 14:51 51.16549 0.77653 17343 ft 386 kts 91°
2026-05-08 14:51 51.16538 0.81935 17918 ft 389 kts 91°
2026-05-08 14:52 51.16526 0.86264 18452 ft 392 kts 91°
2026-05-08 14:52 51.16499 0.95023 19400 ft 399 kts 91°
2026-05-08 14:52 51.16482 0.99468 19895 ft 403 kts 90°
2026-05-08 14:53 51.16463 1.03949 20387 ft 406 kts 90°
2026-05-08 14:53 51.16442 1.08451 20867 ft 410 kts 90°
2026-05-08 14:53 51.16419 1.13016 21337 ft 413 kts 90°
2026-05-08 14:53 51.16393 1.17598 21791 ft 415 kts 90°
2026-05-08 14:54 51.16365 1.22224 22244 ft 418 kts 90°
2026-05-08 14:54 51.16331 1.26860 22679 ft 421 kts 90°
2026-05-08 14:54 51.16296 1.31545 23117 ft 423 kts 90°
2026-05-08 14:54 51.16257 1.36243 23543 ft 426 kts 91°
2026-05-08 14:55 51.16137 1.40975 23907 ft 429 kts 92°
2026-05-08 14:55 51.15931 1.45726 24245 ft 431 kts 94°
2026-05-08 14:55 51.15675 1.50495 24578 ft 433 kts 94°
2026-05-08 14:55 51.15397 1.55280 24906 ft 435 kts 94°
2026-05-08 14:56 51.15122 1.60080 25230 ft 437 kts 94°
2026-05-08 14:56 51.14860 1.64903 25545 ft 439 kts 94°
2026-05-08 14:56 51.14611 1.69768 25860 ft 441 kts 93°
2026-05-08 14:56 51.14372 1.74633 26162 ft 443 kts 92°
2026-05-08 14:57 51.14133 1.79533 26468 ft 445 kts 92°
2026-05-08 14:57 51.13888 1.84461 26777 ft 447 kts 92°
2026-05-08 14:57 51.13637 1.89411 27077 ft 449 kts 92°
2026-05-08 14:57 51.13381 1.94371 27383 ft 451 kts 92°
2026-05-08 14:58 51.13119 1.99358 27722 ft 452 kts 92°
2026-05-08 14:58 51.12852 2.04351 28178 ft 451 kts 92°
2026-05-08 14:58 51.12586 2.09316 28617 ft 450 kts 91°
2026-05-08 14:58 51.12321 2.14272 29053 ft 449 kts 91°
2026-05-08 14:59 51.12056 2.19207 29474 ft 448 kts 91°
2026-05-08 14:59 51.11516 2.29101 30291 ft 447 kts 91°
2026-05-08 14:59 51.11245 2.34020 30653 ft 447 kts 91°
2026-05-08 15:00 51.10971 2.38958 31002 ft 447 kts 91°
2026-05-08 15:00 51.10695 2.43879 31331 ft 447 kts 91°
2026-05-08 15:00 51.10415 2.48820 31683 ft 447 kts 91°
2026-05-08 15:00 51.10134 2.53742 32030 ft 447 kts 91°
2026-05-08 15:01 51.09853 2.58606 32382 ft 447 kts 91°
2026-05-08 15:01 51.09403 2.63517 32738 ft 450 kts 100°
2026-05-08 15:01 51.08483 2.68280 33096 ft 453 kts 110°
2026-05-08 15:01 51.07152 2.72840 33447 ft 454 kts 114°
2026-05-08 15:02 51.05771 2.77353 33798 ft 454 kts 114°
2026-05-08 15:02 51.04398 2.81869 34126 ft 454 kts 114°
2026-05-08 15:02 51.03029 2.86378 34401 ft 453 kts 114°
2026-05-08 15:02 51.01660 2.90884 34677 ft 452 kts 114°
2026-05-08 15:03 51.00291 2.95383 34937 ft 452 kts 115°
2026-05-08 15:03 50.98924 2.99861 35072 ft 453 kts 115°
2026-05-08 15:03 50.96128 3.08985 35093 ft 465 kts 115°
2026-05-08 15:04 50.93279 3.18236 35087 ft 468 kts 115°
2026-05-08 15:04 50.90407 3.27501 35074 ft 468 kts 116°
2026-05-08 15:05 50.87526 3.36751 35077 ft 468 kts 116°
2026-05-08 15:05 50.84645 3.45980 35081 ft 467 kts 116°
2026-05-08 15:06 50.81767 3.55195 35089 ft 467 kts 116°
2026-05-08 15:06 50.78879 3.64399 35085 ft 467 kts 116°
2026-05-08 15:07 50.75990 3.73580 35091 ft 467 kts 116°
2026-05-08 15:07 50.73081 3.82758 35094 ft 467 kts 116°
2026-05-08 15:08 50.70660 3.90374 35097 ft 466 kts 117°
2026-05-08 15:08 50.67264 4.01050 35099 ft 466 kts 117°
2026-05-08 15:09 50.64345 4.10176 35101 ft 466 kts 117°
2026-05-08 15:09 50.61420 4.19270 35099 ft 465 kts 117°
2026-05-08 15:10 50.58496 4.28345 35097 ft 465 kts 117°
2026-05-08 15:10 50.55561 4.37420 35097 ft 465 kts 117°
2026-05-08 15:11 50.52641 4.46421 35100 ft 465 kts 117°
2026-05-08 15:11 50.49698 4.55463 35097 ft 465 kts 118°
2026-05-08 15:12 50.46741 4.64492 35097 ft 465 kts 118°
2026-05-08 15:12 50.43785 4.73499 35099 ft 465 kts 118°
2026-05-08 15:13 50.41321 4.80986 35102 ft 465 kts 118°
2026-05-08 15:13 50.38351 4.89972 35101 ft 464 kts 118°
2026-05-08 15:14 50.35376 4.98955 35100 ft 464 kts 118°
2026-05-08 15:14 50.32384 5.07922 35100 ft 464 kts 119°
2026-05-08 15:15 50.29391 5.16872 35099 ft 464 kts 119°
2026-05-08 15:15 50.26396 5.25816 35099 ft 464 kts 119°
2026-05-08 15:16 50.23395 5.34760 35097 ft 464 kts 119°
2026-05-08 15:16 50.20387 5.43685 35094 ft 464 kts 119°
2026-05-08 15:17 50.17372 5.52593 35089 ft 464 kts 119°
2026-05-08 15:17 50.14348 5.61493 35090 ft 464 kts 120°
2026-05-08 15:18 50.11317 5.70375 35087 ft 464 kts 120°
2026-05-08 15:18 50.08275 5.79243 35085 ft 464 kts 120°
2026-05-08 15:19 50.05161 5.87986 35083 ft 464 kts 122°
2026-05-08 15:19 50.01901 5.96646 35082 ft 464 kts 122°
2026-05-08 15:20 49.98619 6.05300 35079 ft 464 kts 122°
2026-05-08 15:20 49.95366 6.13960 35082 ft 464 kts 122°
2026-05-08 15:21 49.92124 6.22628 35082 ft 464 kts 122°
2026-05-08 15:21 49.88870 6.31278 35076 ft 464 kts 122°
2026-05-08 15:22 49.85602 6.39908 35081 ft 465 kts 122°
2026-05-08 15:22 49.82332 6.48542 35083 ft 465 kts 122°
2026-05-08 15:23 49.79046 6.57167 35086 ft 465 kts 122°
2026-05-08 15:23 49.75778 6.65733 35086 ft 465 kts 122°
2026-05-08 15:24 49.72482 6.74339 35085 ft 465 kts 122°
2026-05-08 15:24 49.69175 6.82940 35083 ft 465 kts 122°
2026-05-08 15:25 49.65864 6.91517 35089 ft 465 kts 123°
2026-05-08 15:25 49.62544 7.00091 35082 ft 465 kts 123°
2026-05-08 15:26 49.59225 7.08651 35082 ft 465 kts 123°
2026-05-08 15:26 49.55895 7.17205 35076 ft 465 kts 123°
2026-05-08 15:27 49.52564 7.25724 35076 ft 465 kts 123°
2026-05-08 15:27 49.49224 7.34241 35080 ft 465 kts 123°
2026-05-08 15:28 49.45872 7.42760 35071 ft 465 kts 123°
2026-05-08 15:28 49.42519 7.51245 35074 ft 465 kts 123°
2026-05-08 15:29 49.39162 7.59735 35072 ft 465 kts 123°
2026-05-08 15:29 49.35803 7.68198 35076 ft 465 kts 123°
2026-05-08 15:30 49.32432 7.76661 35076 ft 464 kts 123°
2026-05-08 15:30 49.29063 7.85088 35079 ft 464 kts 123°
2026-05-08 15:31 49.25682 7.93521 35079 ft 464 kts 124°
2026-05-08 15:31 49.22310 8.01922 35079 ft 464 kts 123°
2026-05-08 15:32 49.18922 8.10323 35070 ft 464 kts 124°
2026-05-08 15:32 49.15525 8.18699 35076 ft 464 kts 124°
2026-05-08 15:33 49.12114 8.27085 35069 ft 464 kts 124°
2026-05-08 15:33 49.08731 8.35395 35067 ft 464 kts 124°
2026-05-08 15:34 49.05318 8.43750 35067 ft 464 kts 124°
2026-05-08 15:34 49.01901 8.52098 35066 ft 464 kts 124°
2026-05-08 15:35 48.97963 8.59872 35065 ft 459 kts 139°
2026-05-08 15:35 48.93035 8.65996 35062 ft 457 kts 144°
2026-05-08 15:36 48.88074 8.71959 35058 ft 458 kts 144°
2026-05-08 15:36 48.83056 8.78007 35060 ft 458 kts 144°
2026-05-08 15:37 48.78095 8.83976 35057 ft 458 kts 144°
2026-05-08 15:37 48.73089 8.89969 35058 ft 459 kts 144°
2026-05-08 15:38 48.68078 8.95952 35062 ft 459 kts 144°
2026-05-08 15:38 48.63066 9.01925 35061 ft 459 kts 144°
2026-05-08 15:39 48.58015 9.07944 35064 ft 459 kts 144°
2026-05-08 15:39 48.53019 9.13846 35065 ft 459 kts 144°
2026-05-08 15:40 48.47980 9.19783 35063 ft 459 kts 145°
2026-05-08 15:40 48.42949 9.25712 35060 ft 459 kts 145°
2026-05-08 15:41 48.37912 9.31636 35058 ft 459 kts 145°
2026-05-08 15:41 48.32881 9.37540 35056 ft 459 kts 145°
2026-05-08 15:42 48.27834 9.43445 35056 ft 459 kts 145°
2026-05-08 15:42 48.22831 9.49410 35055 ft 460 kts 143°
2026-05-08 15:43 48.17994 9.55713 35054 ft 461 kts 141°
2026-05-08 15:43 48.13214 9.62081 35053 ft 460 kts 142°
2026-05-08 15:44 48.08384 9.68378 35053 ft 460 kts 143°
2026-05-08 15:44 48.03522 9.74608 35055 ft 460 kts 143°
2026-05-08 15:45 47.98657 9.80806 35057 ft 459 kts 143°
2026-05-08 15:45 47.93841 9.86968 35069 ft 459 kts 143°
2026-05-08 15:46 47.88996 9.93155 35066 ft 459 kts 143°
2026-05-08 15:46 47.84397 9.99773 35068 ft 464 kts 131°
2026-05-08 15:47 47.81171 10.08164 35069 ft 470 kts 118°
2026-05-08 15:47 47.78377 10.16949 35072 ft 470 kts 119°
2026-05-08 15:48 47.74144 10.30071 35073 ft 469 kts 119°
2026-05-08 15:49 47.71324 10.38816 35075 ft 469 kts 119°
2026-05-08 15:49 47.68504 10.47547 35077 ft 469 kts 120°
2026-05-08 15:50 47.65670 10.56271 35077 ft 468 kts 120°
2026-05-08 15:50 47.62838 10.64964 35085 ft 468 kts 120°
2026-05-08 15:51 47.60002 10.73631 35088 ft 467 kts 120°
2026-05-08 15:51 47.57165 10.82272 35085 ft 466 kts 120°
2026-05-08 15:52 47.54328 10.90906 35079 ft 466 kts 120°
2026-05-08 15:52 47.51486 10.99522 35067 ft 465 kts 121°
2026-05-08 15:53 47.50299 11.03114 35062 ft 465 kts 121°
2026-05-08 15:53 47.47451 11.11671 35040 ft 463 kts 121°
2026-05-08 15:54 47.44623 11.20203 35033 ft 462 kts 121°
2026-05-08 15:54 47.41781 11.28718 35026 ft 462 kts 121°
2026-05-08 15:55 47.38933 11.37209 35023 ft 461 kts 121°
2026-05-08 15:55 47.34668 11.49896 35015 ft 459 kts 122°
2026-05-08 15:56 47.31823 11.58329 35027 ft 459 kts 122°
2026-05-08 15:56 47.28973 11.66737 35033 ft 458 kts 122°
2026-05-08 15:57 47.26121 11.75135 35044 ft 458 kts 122°
2026-05-08 15:57 47.23266 11.83498 35041 ft 457 kts 122°
2026-05-08 15:58 47.20294 11.91721 35044 ft 452 kts 128°
2026-05-08 15:58 47.17518 11.98231 35044 ft 451 kts 128°
2026-05-08 15:59 47.14179 12.06034 35052 ft 452 kts 128°
2026-05-08 15:59 47.10829 12.13845 35053 ft 452 kts 128°
2026-05-08 16:00 47.07485 12.21644 35051 ft 452 kts 128°
2026-05-08 16:00 47.04130 12.29432 35050 ft 451 kts 128°
2026-05-08 16:01 47.00773 12.37190 35056 ft 451 kts 127°
2026-05-08 16:01 46.97407 12.44961 35052 ft 452 kts 128°
2026-05-08 16:02 46.94037 12.52720 35053 ft 452 kts 127°
2026-05-08 16:02 46.90656 12.60488 35054 ft 452 kts 127°
2026-05-08 16:03 46.87263 12.68231 35050 ft 453 kts 127°
2026-05-08 16:03 46.83855 12.75994 35045 ft 454 kts 127°
2026-05-08 16:04 46.80447 12.83757 35040 ft 455 kts 127°
2026-05-08 16:04 46.77018 12.91533 35042 ft 456 kts 128°
2026-05-08 16:05 46.73574 12.99320 35038 ft 457 kts 128°
2026-05-08 16:05 46.70120 13.07111 35031 ft 459 kts 128°
2026-05-08 16:06 46.66647 13.14933 35031 ft 460 kts 128°
2026-05-08 16:06 46.63182 13.22701 35034 ft 461 kts 128°
2026-05-08 16:07 46.59687 13.30522 35033 ft 461 kts 128°
2026-05-08 16:07 46.56630 13.38769 35033 ft 471 kts 114°
2026-05-08 16:08 46.55027 13.48129 35028 ft 473 kts 112°
2026-05-08 16:08 46.53811 13.52449 35033 ft 465 kts 123°
2026-05-08 16:08 46.52082 13.56361 35035 ft 458 kts 134°
2026-05-08 16:09 46.47607 13.62710 35027 ft 445 kts 150°
2026-05-08 16:09 46.42426 13.67539 35029 ft 443 kts 154°
2026-05-08 16:10 46.37190 13.72247 35030 ft 443 kts 154°
2026-05-08 16:10 46.31944 13.76942 35041 ft 444 kts 154°
2026-05-08 16:11 46.26686 13.81643 35059 ft 444 kts 153°
2026-05-08 16:11 46.21428 13.86345 35053 ft 444 kts 154°
2026-05-08 16:12 46.16174 13.91028 35041 ft 444 kts 154°
2026-05-08 16:12 46.10913 13.95703 35033 ft 444 kts 154°
2026-05-08 16:13 46.05661 14.00365 35029 ft 444 kts 154°
2026-05-08 16:13 46.00399 14.05029 35025 ft 444 kts 154°
2026-05-08 16:14 45.95164 14.09663 35028 ft 444 kts 154°
2026-05-08 16:14 45.89864 14.14326 35025 ft 444 kts 154°
2026-05-08 16:15 45.84588 14.18967 35023 ft 445 kts 154°
2026-05-08 16:15 45.79342 14.23571 35024 ft 445 kts 154°
2026-05-08 16:16 45.74027 14.28218 35024 ft 445 kts 154°
2026-05-08 16:16 45.68778 14.32801 35028 ft 445 kts 154°
2026-05-08 16:17 45.64350 14.36658 35033 ft 445 kts 154°
2026-05-08 16:17 45.58208 14.42012 35040 ft 445 kts 154°
2026-05-08 16:18 45.52923 14.46603 35034 ft 445 kts 154°
2026-05-08 16:18 45.47630 14.51179 35033 ft 445 kts 154°
2026-05-08 16:19 45.42330 14.55755 35030 ft 446 kts 154°
2026-05-08 16:19 45.37024 14.60336 35025 ft 446 kts 154°
2026-05-08 16:20 45.31706 14.64904 35020 ft 447 kts 154°
2026-05-08 16:20 45.26376 14.69479 35018 ft 447 kts 154°
2026-05-08 16:21 45.21042 14.74053 35017 ft 448 kts 154°
2026-05-08 16:21 45.15693 14.78634 35023 ft 449 kts 154°
2026-05-08 16:22 45.10346 14.83194 35026 ft 449 kts 154°
2026-05-08 16:22 45.04992 14.87744 35033 ft 449 kts 154°
2026-05-08 16:23 44.99637 14.92281 35042 ft 449 kts 154°
2026-05-08 16:23 44.94315 14.96793 35048 ft 449 kts 154°
2026-05-08 16:24 44.88918 15.01360 35048 ft 449 kts 154°
2026-05-08 16:24 44.83595 15.05846 35051 ft 449 kts 154°
2026-05-08 16:25 44.78230 15.10363 35044 ft 449 kts 154°
2026-05-08 16:25 44.72867 15.14865 35048 ft 449 kts 154°
2026-05-08 16:26 44.67503 15.19361 35043 ft 449 kts 154°
2026-05-08 16:26 44.62133 15.23847 35035 ft 449 kts 154°
2026-05-08 16:27 44.56768 15.28322 35036 ft 449 kts 154°
2026-05-08 16:27 44.51398 15.32796 35030 ft 449 kts 154°
2026-05-08 16:28 44.46020 15.37262 35027 ft 449 kts 154°
2026-05-08 16:28 44.40641 15.41720 35032 ft 450 kts 154°
2026-05-08 16:29 44.35246 15.46173 35028 ft 450 kts 154°
2026-05-08 16:29 44.29855 15.50622 35035 ft 451 kts 154°
2026-05-08 16:30 44.24444 15.55077 35035 ft 451 kts 155°
2026-05-08 16:30 44.19038 15.59514 35031 ft 451 kts 155°
2026-05-08 16:31 44.13626 15.63960 35042 ft 452 kts 155°
2026-05-08 16:31 44.08212 15.68397 35037 ft 452 kts 155°
2026-05-08 16:32 44.02784 15.72823 35033 ft 452 kts 155°
2026-05-08 16:32 43.97347 15.77247 35027 ft 453 kts 155°
2026-05-08 16:33 43.91900 15.81672 35024 ft 453 kts 155°
2026-05-08 16:33 43.86488 15.86062 35023 ft 454 kts 155°
2026-05-08 16:34 43.81035 15.90473 35025 ft 455 kts 155°
2026-05-08 16:34 43.75574 15.94895 35025 ft 455 kts 155°
2026-05-08 16:35 43.70101 15.99306 35021 ft 455 kts 155°
2026-05-08 16:35 43.64614 16.03702 35019 ft 456 kts 155°
2026-05-08 16:36 43.59125 16.08106 35018 ft 456 kts 155°
2026-05-08 16:36 43.53630 16.12512 35017 ft 457 kts 155°
2026-05-08 16:37 43.48132 16.16912 35015 ft 457 kts 155°
2026-05-08 16:37 43.42629 16.21306 35010 ft 458 kts 155°
2026-05-08 16:38 43.37113 16.25688 35018 ft 458 kts 155°
2026-05-08 16:38 43.31585 16.30059 35016 ft 459 kts 155°
2026-05-08 16:39 43.26058 16.34444 35019 ft 459 kts 155°
2026-05-08 16:39 43.20517 16.38824 35014 ft 459 kts 156°
2026-05-08 16:40 43.14985 16.43191 35011 ft 460 kts 156°
2026-05-08 16:40 43.09435 16.47565 35023 ft 460 kts 156°
2026-05-08 16:41 43.03873 16.51939 35017 ft 461 kts 156°
2026-05-08 16:42 42.95518 16.58493 35009 ft 462 kts 156°
2026-05-08 16:42 42.90873 16.62115 35007 ft 463 kts 157°
2026-05-08 16:43 42.84329 16.67205 34977 ft 464 kts 157°
2026-05-08 16:43 42.81515 16.69392 34090 ft 470 kts 157°
2026-05-08 16:43 42.78634 16.71620 32813 ft 480 kts 156°
2026-05-08 16:43 42.75767 16.73846 31996 ft 480 kts 156°
2026-05-08 16:44 42.72882 16.76095 31461 ft 474 kts 156°
2026-05-08 16:44 42.70034 16.78319 30855 ft 471 kts 156°
2026-05-08 16:44 42.67205 16.80524 30281 ft 467 kts 156°
2026-05-08 16:44 42.64331 16.82494 29692 ft 457 kts 162°
2026-05-08 16:45 42.61429 16.84220 29152 ft 451 kts 162°
2026-05-08 16:45 42.59538 16.85351 28793 ft 448 kts 162°
2026-05-08 16:45 42.56699 16.87052 28261 ft 442 kts 162°
2026-05-08 16:45 42.53907 16.88727 27740 ft 437 kts 162°
2026-05-08 16:46 42.51136 16.90381 27224 ft 432 kts 162°
2026-05-08 16:46 42.48396 16.92013 26719 ft 428 kts 162°
2026-05-08 16:46 42.44812 16.94150 26067 ft 422 kts 162°
2026-05-08 16:46 42.43008 16.95225 25738 ft 419 kts 162°
2026-05-08 16:47 42.40349 16.96807 25251 ft 415 kts 161°
2026-05-08 16:47 42.37716 16.98373 24795 ft 412 kts 161°
2026-05-08 16:47 42.35128 16.99912 24344 ft 409 kts 161°
2026-05-08 16:47 42.32533 17.01453 23907 ft 406 kts 161°
2026-05-08 16:48 42.29956 17.02979 23456 ft 403 kts 161°
2026-05-08 16:48 42.27402 17.04488 23012 ft 399 kts 161°
2026-05-08 16:48 42.24867 17.05987 22579 ft 396 kts 161°
2026-05-08 16:48 42.22361 17.07472 22159 ft 392 kts 161°
2026-05-08 16:49 42.19872 17.08943 21740 ft 389 kts 161°
2026-05-08 16:49 42.17403 17.10399 21316 ft 385 kts 160°
2026-05-08 16:49 42.14959 17.11842 20893 ft 382 kts 160°
2026-05-08 16:49 42.12530 17.13271 20477 ft 379 kts 160°
2026-05-08 16:50 42.10125 17.14686 20021 ft 376 kts 160°
2026-05-08 16:50 42.07732 17.16093 19591 ft 373 kts 160°
2026-05-08 16:50 42.05362 17.17489 19147 ft 371 kts 160°
2026-05-08 16:50 42.03002 17.18878 18699 ft 369 kts 160°
2026-05-08 16:51 42.00660 17.20258 18236 ft 367 kts 160°
2026-05-08 16:51 41.98309 17.21557 17751 ft 362 kts 166°
2026-05-08 16:51 41.95877 17.22212 17305 ft 353 kts 179°
2026-05-08 16:51 41.93453 17.22136 16865 ft 345 kts 191°
2026-05-08 16:52 41.91148 17.21395 16435 ft 338 kts 202°
2026-05-08 16:52 41.89044 17.20041 15996 ft 333 kts 213°
2026-05-08 16:52 41.87219 17.18173 15568 ft 329 kts 223°
2026-05-08 16:52 41.85517 17.16134 15141 ft 326 kts 222°
2026-05-08 16:53 41.82145 17.12121 14291 ft 322 kts 221°
2026-05-08 16:53 41.80467 17.10131 13859 ft 321 kts 221°
2026-05-08 16:53 41.78818 17.08173 13405 ft 319 kts 221°
2026-05-08 16:54 41.77165 17.06213 12971 ft 316 kts 221°
2026-05-08 16:54 41.75504 17.04246 12548 ft 313 kts 221°
2026-05-08 16:54 41.73870 17.02390 12126 ft 311 kts 215°
2026-05-08 16:54 41.71983 17.00929 11703 ft 309 kts 203°
2026-05-08 16:55 41.69957 17.00009 11297 ft 307 kts 195°
2026-05-08 16:55 41.67905 16.99232 10875 ft 306 kts 196°
2026-05-08 16:55 41.65861 16.98479 10545 ft 302 kts 191°
2026-05-08 16:55 41.63817 16.98372 10480 ft 290 kts 172°
2026-05-08 16:56 41.61935 16.99199 10481 ft 284 kts 152°
2026-05-08 16:56 41.60216 17.00706 10488 ft 310 kts 147°
2026-05-08 16:56 41.58347 17.02397 10487 ft 339 kts 147°
2026-05-08 16:56 41.56335 17.04223 10489 ft 357 kts 147°
2026-05-08 16:57 41.54285 17.06088 10484 ft 362 kts 147°
2026-05-08 16:57 41.52171 17.08007 10483 ft 363 kts 147°
2026-05-08 16:57 41.50203 17.09789 10481 ft 363 kts 147°
2026-05-08 16:57 41.48128 17.11667 10476 ft 352 kts 147°
2026-05-08 16:58 41.46161 17.13446 10467 ft 332 kts 147°
2026-05-08 16:58 41.44305 17.15123 10466 ft 314 kts 147°
2026-05-08 16:58 41.42529 17.16724 10313 ft 304 kts 147°
2026-05-08 16:58 41.40797 17.18279 10075 ft 297 kts 147°
2026-05-08 16:59 41.39103 17.19799 9888 ft 287 kts 147°
2026-05-08 16:59 41.37476 17.21259 9764 ft 277 kts 147°
2026-05-08 16:59 41.35901 17.22671 9622 ft 269 kts 147°
2026-05-08 16:59 41.34347 17.24063 9069 ft 272 kts 147°
2026-05-08 17:00 41.32780 17.25467 8662 ft 271 kts 147°
2026-05-08 17:00 41.31222 17.26819 8486 ft 263 kts 154°
2026-05-08 17:00 41.29491 17.27396 8374 ft 258 kts 182°
2026-05-08 17:00 41.27772 17.26767 8194 ft 262 kts 208°
2026-05-08 17:01 41.26486 17.25004 7620 ft 277 kts 240°
2026-05-08 17:01 41.25777 17.22582 7075 ft 283 kts 247°
2026-05-08 17:01 41.25124 17.20169 6574 ft 278 kts 247°
2026-05-08 17:01 41.24473 17.17777 6101 ft 272 kts 246°
2026-05-08 17:02 41.23835 17.15451 5677 ft 264 kts 246°
2026-05-08 17:02 41.23212 17.13201 5274 ft 256 kts 245°
2026-05-08 17:02 41.22781 17.11653 4996 ft 251 kts 245°
2026-05-08 17:02 41.22183 17.09511 4602 ft 244 kts 244°
2026-05-08 17:03 41.21606 17.07430 4226 ft 237 kts 246°
2026-05-08 17:03 41.21230 17.05318 3855 ft 233 kts 253°
2026-05-08 17:03 41.20919 17.03262 3660 ft 219 kts 252°
2026-05-08 17:03 41.20628 17.01328 3609 ft 207 kts 252°
2026-05-08 17:04 41.20356 16.99514 3538 ft 196 kts 251°
2026-05-08 17:04 41.20001 16.97806 3423 ft 190 kts 242°
2026-05-08 17:04 41.19534 16.96173 3170 ft 188 kts 242°
2026-05-08 17:04 41.19070 16.94544 2871 ft 188 kts 242°
2026-05-08 17:05 41.18611 16.92922 2608 ft 186 kts 242°
2026-05-08 17:05 41.18162 16.91325 2358 ft 183 kts 243°
2026-05-08 17:05 41.17722 16.89763 2116 ft 179 kts 243°
2026-05-08 17:05 41.17286 16.88225 1886 ft 177 kts 243°
2026-05-08 17:06 41.16855 16.86702 1641 ft 175 kts 243°
2026-05-08 17:06 41.16435 16.85214 1417 ft 164 kts 243°
2026-05-08 17:06 41.16061 16.83871 1186 ft 151 kts 243°
2026-05-08 17:06 41.15695 16.82580 1005 ft 148 kts 245°
2026-05-08 17:07 41.15331 16.81298 786 ft 149 kts 247°
2026-05-08 17:07 41.14962 16.79998 608 ft 151 kts 249°
2026-05-08 17:07 41.14602 16.78708 369 ft 152 kts 249°
2026-05-08 17:07 41.14224 16.77374 177 ft 154 kts 250°
2026-05-08 17:08 41.13872 16.76135 133 ft 125 kts 250°
2026-05-08 17:08 41.13653 16.75348 141 ft 67 kts 249°
2026-05-08 17:08 41.13518 16.74889 139 ft 42 kts 250°
2026-05-08 17:08 41.13401 16.74770 145 ft 20 kts 147°
2026-05-08 17:09 41.13346 16.74928 148 ft 20 kts 84°
2026-05-08 17:09 41.13392 16.75103 147 ft 21 kts 69°
2026-05-08 17:09 41.13448 16.75299 142 ft 24 kts 69°
2026-05-08 17:09 41.13508 16.75512 142 ft 25 kts 69°
2026-05-08 17:10 41.13574 16.75740 138 ft 27 kts 70°
2026-05-08 17:10 41.13634 16.75947 136 ft 15 kts 81°
2026-05-08 17:10 41.13614 16.76049 136 ft 8 kts 129°
2026-05-08 17:10 41.13571 16.76095 136 ft 8 kts 147°
2026-05-08 17:11 41.13553 16.76164 136 ft 8 kts 81°
2026-05-08 17:11 41.13549 16.76209 136 ft 5 kts 139°
2026-05-08 17:11 41.13523 16.76223 136 ft 4 kts 159°
2026-05-08 17:11 41.13503 16.76233 136 ft 4 kts 159°
2026-05-08 17:12 41.13492 16.76239 136 ft 0 kts 159°